Voltar ao catálogo

FENGYUN 1C DEB

AtivoPO
NORAD 31754·DEBRIS·🇨🇳 China

Lançado May 10, 1999 de Taiyuan Satellite Launch Center

Loading…

Próximas Passagens (próximas 24 horas)

TLE

AtualizadoSource: Space-Track

Época: Sep 13, 2026, 04:28 UTC

1 31754U 99025CFD 26256.18612602  .00001659  00000-0  49390-3 0  9991
2 31754  99.0626 243.5214 0049835 124.0491 236.5444 14.43875808  9145

Acompanhe FENGYUN 1C DEB em tempo real com AllMySat

Download on the App Store